Regional Weather Roundup
Issued by NWS Jackson, KY

Home | Current Version | Previous Version | Text Only | Print | Product List | Glossary Off
Versions: 1 2 3 4 5 6 7 8 9 10 11 12 13 14 15 16 17 18 19 20 21 22 23 24 25 26 27 28 29 30 31 32 33 34 35 36 37 38 39 40 41 42 43 44 45 46 47 48 49 50

000
ASUS43 KJKL 110305
RWRJKL

EAST KENTUCKY HOURLY WEATHER ROUNDUP
NATIONAL WEATHER SERVICE JACKSON KY
1100 PM EDT THU JUL 10 2014

NOTE: "FAIR" INDICATES FEW OR NO CLOUDS BELOW 12,000 FEET WITH
NO SIGNIFICANT WEATHER AND/OR OBSTRUCTIONS TO VISIBILITY.

* THESE REPORTS ARE NOT UNDER NWS QUALITY CONTROL AND MAY NOT
  REPORT WEATHER SUCH AS PRECIPITATION AND FOG.

KYZ079-080-083-085-087-088-110-112-115-119-120-110400
...EASTERN KENTUCKY...

CITY           SKY/WX    TMP DP  RH WIND       PRES   REMARKS
JACKSON        CLEAR     72  60  66 CALM      30.16R
LONDON         PTCLDY    74  62  66 NE3       30.15R
SOMERSET*      CLEAR     72  61  68 CALM      30.14R
MONTICELLO*    MOCLDY    68  66  93 CALM      30.15R
WILLIAMSBURG*    N/A     68  66  94 CALM      30.15R
MIDDLESBORO*   MOCLDY    69  62  78 CALM      30.15R
HARLAN APT*    PTCLDY    66  63  88 MISG      30.17R
BLACK MTN*       N/A     63  57  82 NW1         N/A
PIKEVILLE APT* CLEAR     72  63  73 N3        30.16R
BIG SANDY*     CLEAR     72  63  73 CALM      30.15R
MOREHEAD APT*  MOCLDY    72  61  68 NE6       30.17R
$$

KYZ035-036-041-042-044-050-067-078-099-110400
...CENTRAL KENTUCKY...

CITY           SKY/WX    TMP DP  RH WIND       PRES   REMARKS
MT STERLING*   CLEAR     70  61  73 CALM      30.16R
FLEMING/MASON* CLEAR     70  59  68 NE5       30.16R
DANVILLE*      CLEAR     68  59  73 N5        30.16R
RICHMOND*      CLEAR     73  59  60 CALM      30.14R
LEXINGTON      CLEAR     71  58  63 CALM      30.15R
FRANKFORT      CLEAR     68  58  70 NW3       30.14R
$$

KYZ091>093-OHZ055-061-077-WVZ005-015-034-035-042-110400
...SOUTHERN OHIO/WEST VIRGINIA...

CITY           SKY/WX    TMP DP  RH WIND       PRES   REMARKS
COVINGTON      CLEAR     71  55  56 N6        30.16R
COLUMBUS       PTCLDY    72  55  55 NE3       30.15R
DAYTON         CLEAR     66  55  67 N5        30.18R
WILMINGTON     CLEAR     66  57  72 N5        30.16R
HUNTINGTON     CLEAR     72  60  66 CALM      30.13R
CHARLESTON     MOCLDY    68  68 100 CALM      30.13R
PINEVILLE*     CLEAR     66  66  99 MISG      30.23R
BECKLEY        CLEAR     65  60  84 CALM      30.21R
BLUEFIELD      CLEAR     69  56  62 CALM      30.23R
$$

VAZ002-007-008-TNZ017-027-036-066-071-110400
...SOUTHWEST VIRGINIA/EAST TENNESSEE...

CITY           SKY/WX    TMP DP  RH WIND       PRES   REMARKS
WISE*          PTCLDY    70  54  56 N3        30.23R
JONESVILLE*      N/A     68  66  94 CALM      30.17R
ABINGDON*      MOCLDY    69  65  88 CALM      30.19R
BRISTOL        CLOUDY    71  64  78 CALM      30.15R
KNOXVILLE      PTCLDY    72  66  81 NE3       30.11R
OAK RIDGE      CLEAR     73  69  87 CALM      30.13R
CROSSVILLE     CLEAR     67  64  90 CALM      30.17R
NASHVILLE      MOCLDY    80  63  55 CALM      30.11R
$$

...KEY TO REMARKS...
VSB - VISIBILITY IN MILES
WCI - WIND CHILL INDEX
HX  - HEAT INDEX

$$


USA.gov is the U.S. government's official web portal to all federal, state and local government web resources and services.